ANDOYA current weather conditions

sailwx.info

Wind from 210 at 11 knots

Air temperature 4.0° C
Visibility: greater than 5.4 NM
Dewpoint 3.0° C

Last reported at 2015-Apr-18 00:50 UTC.
Time now 2015-Apr-18 03:27 UTC

Location: N 69°18' E 016°09'.
View on Google Maps.

See reports from other nearby stations

  
Tides and Currents Weather Stations Pressure Air Temp Water Temp Dewpoint Dewpoint Depression Visibility Wind Speed Wind Dir Waves Ship Positions
date/time (UTC)wind fromknots sea level pressurealtimeterstation pressurevisibilityair tempwater tempwave heightnotes
2015-Apr-18 01:50 220 14 5.4 4.0 Light rain showers.
2015-Apr-18 00:50 210 11 5.4 4.0
2015-Apr-17 23:50 220 11 5.4 4.0 Light rain showers.
2015-Apr-17 22:50 220 11 5.4 5.0 Light rain showers.
2015-Apr-17 21:50 210 8 4.9 4.0 Light rain showers.
2015-Apr-17 20:50 220 10 5.4 5.0
2015-Apr-17 19:50 230 11 5.4 5.0 Light rain showers.
2015-Apr-17 18:50 250 11 5.4 5.0 Light rain showers.
2015-Apr-17 17:50 250 12 5.4 5.0 Light rain showers.
2015-Apr-17 17:20 250 14 5.4 5.0 Light rain showers.
2015-Apr-17 16:50 250 15 5.4 6.0 Light rain showers.
2015-Apr-17 16:20 250 14 5.4 6.0 Light rain showers.
2015-Apr-17 15:50 250 15 5.4 6.0 Showers in the vicinity.
2015-Apr-17 15:20 250 17 5.4 6.0 Light rain showers.
2015-Apr-17 14:50 240 16 5.4 6.0 Light rain showers.
2015-Apr-17 14:20 250 13 5.4 6.0 Rain showers.
2015-Apr-17 13:50 240 11 5.4 6.0 Light rain showers.
2015-Apr-17 13:20 230 11 5.4 6.0 Showers in the vicinity.
2015-Apr-17 12:50 240 13 5.4 7.0 Showers in the vicinity.
2015-Apr-17 12:20 230 12 5.4 6.0 Showers in the vicinity.
2015-Apr-17 11:50 230 13 5.4 6.0 Showers in the vicinity.
2015-Apr-17 11:20 240 12 5.4 6.0 Light rain showers.
2015-Apr-17 10:50 230 11 5.4 6.0 Showers in the vicinity.
2015-Apr-17 10:20 201 3 5.4 6.0
2015-Apr-17 09:50 220 13 5.4 6.0
2015-Apr-17 09:20 230 11 5.4 6.0
2015-Apr-17 08:50 230 11 5.4 6.0
2015-Apr-17 08:20 240 13 5.4 6.0
2015-Apr-17 07:50 230 10 5.4 6.0
2015-Apr-17 07:20 230 9 5.4 6.0
2015-Apr-17 06:50 230 10 5.4 5.0
2015-Apr-17 06:20 250 12 5.4 5.0
2015-Apr-17 05:50 260 14 5.4 5.0
2015-Apr-17 05:20 240 10 5.4 5.0 Showers in the vicinity.
2015-Apr-17 04:50 270 11 5.4 5.0 Light rain showers.
2015-Apr-17 04:20 240 6 5.4 5.0 Showers in the vicinity.
2015-Apr-17 03:50 260 8 5.4 5.0 Showers in the vicinity.
2015-Apr-17 03:20 260 5 5.4 5.0 Showers in the vicinity.
2015-Apr-17 02:50 240 4 5.4 4.0 Showers in the vicinity.
2015-Apr-17 01:50 290 7 5.4 5.0 Showers in the vicinity.
2015-Apr-17 00:50 260 5 5.4 5.0
2015-Apr-16 23:50 250 5 5.4 5.0
2015-Apr-16 22:50 260 6 5.4 5.0
2015-Apr-16 21:50 290 8 5.4 5.0
2015-Apr-16 20:50 310 7 5.4 5.0
2015-Apr-16 19:50 320 5 5.4 5.0
2015-Apr-16 18:50 300 4 5.4 5.0
2015-Apr-16 17:50 310 4 5.4 6.0
2015-Apr-16 16:50 330 5 5.4 7.0
2015-Apr-16 16:20 330 6 5.4 7.0
2015-Apr-16 15:50 330 7 5.4 7.0
2015-Apr-16 14:50 310 6 5.4 8.0
2015-Apr-16 14:20 330 7 5.4 8.0
2015-Apr-16 13:50 330 6 5.4 8.0
2015-Apr-16 13:20 030 7 5.4 8.0
2015-Apr-16 12:50 010 6 5.4 8.0
2015-Apr-16 12:20 350 7 5.4 8.0
2015-Apr-16 11:20 320 7 5.4 7.0
2015-Apr-16 10:50 310 8 5.4 7.0
2015-Apr-16 10:20 310 7 5.4 7.0
2015-Apr-16 09:50 300 7 5.4 7.0
2015-Apr-16 09:20 300 6 5.4 7.0
2015-Apr-16 08:50 300 5 5.4 7.0
2015-Apr-16 08:20 310 5 5.4 7.0
2015-Apr-16 07:50 320 4 5.4 6.0
2015-Apr-16 07:20 310 4 5.4 6.0
2015-Apr-16 06:50 320 3 5.4 6.0
2015-Apr-16 06:20 5.4 6.0
2015-Apr-16 05:50 5.4 5.0
2015-Apr-16 05:20 5.4 4.0
2015-Apr-16 04:50 320 2 5.4 4.0
2015-Apr-16 04:20 190 7 5.4 4.0
2015-Apr-16 03:50 200 4 5.4 3.0
2015-Apr-16 03:20 160 5 5.4 3.0